• în Republica Moldova
  • Lista ţărilor
  • Pe 7 zile
  • Temperatura apei
  • Hartă satelitară
  • Meteo pe hartă
  • Widget-uri
  • user-avatar
    Intrare

    Meteo pe oră la Darwin

    Astăzi, 24 Iunie, Sâmbătă

    Timp Temperatura Precipitaţii Vânt Presiune Umiditate
    00:00 +24°C° 0 mm 2 m/s 759 mmHg 81%
    01:00 +24°C° 0 mm 2 m/s 759 mmHg 78%
    02:00 +22°C° 0 mm 3 m/s 759 mmHg 75%
    03:00 +22°C° 0 mm 3 m/s 759 mmHg 72%
    04:00 +22°C° 0 mm 4 m/s 759 mmHg 74%
    05:00 +21°C° 0 mm 4 m/s 759 mmHg 77%
    06:00 +21°C° 0 mm 4 m/s 759 mmHg 80%
    07:00 +22°C° 0 mm 5 m/s 759 mmHg 75%
    08:00 +25°C° 0 mm 5 m/s 759 mmHg 71%
    09:00 +26°C° 0 mm 5 m/s 760 mmHg 66%
    10:00 +28°C° 0 mm 5 m/s 759 mmHg 55%
    11:00 +30°C° 0 mm 5 m/s 759 mmHg 44%
    12:00 +33°C° 0 mm 5 m/s 759 mmHg 33%
    13:00 +34°C° 0 mm 5 m/s 758 mmHg 31%
    14:00 +35°C° 0 mm 4 m/s 758 mmHg 30%
    15:00 +35°C° 0 mm 4 m/s 757 mmHg 28%
    16:00 +33°C° 0 mm 4 m/s 757 mmHg 35%
    17:00 +29°C° 0 mm 4 m/s 757 mmHg 42%
    18:00 +27°C° 0 mm 3 m/s 757 mmHg 49%
    19:00 +26°C° 0 mm 3 m/s 757 mmHg 54%
    20:00 +24°C° 0 mm 3 m/s 758 mmHg 59%
    21:00 +22°C° 0 mm 3 m/s 758 mmHg 64%
    22:00 +22°C° 0 mm 3 m/s 758 mmHg 65%
    23:00 +21°C° 0 mm 2 m/s 759 mmHg 65%

    Mâine, 25 Iunie, Duminică

    Timp Temperatura Precipitaţii Vânt Presiune Umiditate
    00:00 +21°C° 0 mm 2 m/s 759 mmHg 66%
    01:00 +21°C° 0 mm 3 m/s 759 mmHg 65%
    02:00 +21°C° 0 mm 3 m/s 759 mmHg 65%
    03:00 +21°C° 0 mm 3 m/s 758 mmHg 64%
    04:00 +20°C° 0 mm 3 m/s 759 mmHg 69%
    05:00 +20°C° 0 mm 4 m/s 759 mmHg 73%
    06:00 +20°C° 0 mm 4 m/s 759 mmHg 78%
    07:00 +22°C° 0 mm 4 m/s 759 mmHg 71%
    08:00 +23°C° 0 mm 4 m/s 760 mmHg 64%
    09:00 +26°C° 0 mm 4 m/s 760 mmHg 57%
    10:00 +28°C° 0 mm 4 m/s 759 mmHg 48%
    11:00 +32°C° 0 mm 5 m/s 759 mmHg 39%
    12:00 +34°C° 0 mm 5 m/s 759 mmHg 31%
    13:00 +34°C° 0 mm 4 m/s 758 mmHg 30%
    14:00 +35°C° 0 mm 4 m/s 758 mmHg 29%
    15:00 +35°C° 0 mm 4 m/s 757 mmHg 28%
    16:00 +33°C° 0 mm 4 m/s 757 mmHg 35%
    17:00 +30°C° 0 mm 4 m/s 757 mmHg 42%
    18:00 +27°C° 0 mm 3 m/s 758 mmHg 50%
    19:00 +26°C° 0 mm 3 m/s 758 mmHg 55%
    20:00 +25°C° 0 mm 3 m/s 759 mmHg 60%
    21:00 +24°C° 0 mm 3 m/s 759 mmHg 65%
    22:00 +22°C° 0 mm 3 m/s 759 mmHg 70%
    23:00 +22°C° 0 mm 3 m/s 759 mmHg 75%

    Poimâine, 26 Iunie, Luni

    Timp Temperatura Precipitaţii Vânt Presiune Umiditate
    00:00 +22°C° 0 mm 3 m/s 760 mmHg 80%
    01:00 +22°C° 0 mm 3 m/s 759 mmHg 80%
    02:00 +22°C° 0 mm 3 m/s 759 mmHg 80%
    03:00 +22°C° 0 mm 3 m/s 759 mmHg 80%
    04:00 +22°C° 0 mm 3 m/s 759 mmHg 80%
    05:00 +21°C° 0 mm 4 m/s 759 mmHg 80%
    06:00 +21°C° 0 mm 4 m/s 759 mmHg 80%
    07:00 +22°C° 0 mm 4 m/s 760 mmHg 76%
    08:00 +25°C° 0 mm 4 m/s 760 mmHg 72%
    09:00 +26°C° 0 mm 4 m/s 761 mmHg 69%
    10:00 +28°C° 0 mm 4 m/s 760 mmHg 59%
    11:00 +30°C° 0 mm 4 m/s 760 mmHg 50%
    12:00 +33°C° 0 mm 4 m/s 760 mmHg 40%
    13:00 +33°C° 0 mm 3 m/s 759 mmHg 38%
    14:00 +34°C° 0 mm 3 m/s 759 mmHg 36%
    15:00 +34°C° 0 mm 2 m/s 758 mmHg 34%
    16:00 +31°C° 0 mm 2 m/s 758 mmHg 41%
    17:00 +29°C° 0 mm 2 m/s 758 mmHg 49%
    18:00 +26°C° 0 mm 2 m/s 759 mmHg 56%
    19:00 +25°C° 0 mm 2 m/s 759 mmHg 60%
    20:00 +24°C° 0 mm 2 m/s 760 mmHg 64%
    21:00 +23°C° 0 mm 2 m/s 760 mmHg 67%
    22:00 +23°C° 0 mm 2 m/s 760 mmHg 65%
    23:00 +23°C° 0 mm 2 m/s 760 mmHg 63%

    27 Iunie, Marţi

    Timp Temperatura Precipitaţii Vânt Presiune Umiditate
    00:00 +23°C° 0 mm 2 m/s 760 mmHg 61%
    01:00 +23°C° 0 mm 2 m/s 760 mmHg 64%
    02:00 +22°C° 0 mm 3 m/s 760 mmHg 67%
    03:00 +21°C° 0 mm 3 m/s 759 mmHg 70%
    04:00 +21°C° 0 mm 3 m/s 760 mmHg 74%
    05:00 +21°C° 0 mm 4 m/s 760 mmHg 78%
    06:00 +21°C° 0 mm 5 m/s 760 mmHg 82%
    07:00 +23°C° 0 mm 5 m/s 760 mmHg 77%
    08:00 +26°C° 0 mm 5 m/s 761 mmHg 72%
    09:00 +27°C° 0 mm 5 m/s 761 mmHg 67%
    10:00 +29°C° 0 mm 5 m/s 761 mmHg 59%
    11:00 +32°C° 0 mm 4 m/s 760 mmHg 50%
    12:00 +34°C° 0 mm 4 m/s 760 mmHg 42%
    13:00 +35°C° 0 mm 3 m/s 759 mmHg 40%
    14:00 +35°C° 0 mm 3 m/s 758 mmHg 37%
    15:00 +36°C° 0 mm 3 m/s 757 mmHg 34%
    16:00 +34°C° 0 mm 3 m/s 758 mmHg 42%
    17:00 +31°C° 0 mm 3 m/s 758 mmHg 50%
    18:00 +28°C° 0 mm 3 m/s 758 mmHg 57%
    19:00 +27°C° 0 mm 3 m/s 759 mmHg 64%
    20:00 +25°C° 0 mm 2 m/s 759 mmHg 71%
    21:00 +24°C° 0 mm 2 m/s 760 mmHg 77%
    22:00 +24°C° 0 mm 2 m/s 760 mmHg 80%
    23:00 +24°C° 0 mm 2 m/s 760 mmHg 82%

    28 Iunie, Miercuri

    Timp Temperatura Precipitaţii Vânt Presiune Umiditate
    00:00 +24°C° 0 mm 2 m/s 760 mmHg 85%
    01:00 +24°C° 0 mm 2 m/s 759 mmHg 85%
    02:00 +24°C° 0 mm 3 m/s 759 mmHg 85%
    03:00 +22°C° 0 mm 3 m/s 759 mmHg 84%
    04:00 +22°C° 0 mm 3 m/s 759 mmHg 83%
    05:00 +22°C° 0 mm 3 m/s 760 mmHg 82%
    06:00 +22°C° 0 mm 3 m/s 760 mmHg 81%
    07:00 +25°C° 0 mm 3 m/s 760 mmHg 74%
    08:00 +26°C° 0 mm 3 m/s 761 mmHg 68%
    09:00 +28°C° 0 mm 3 m/s 761 mmHg 62%
    10:00 +30°C° 0 mm 3 m/s 761 mmHg 54%
    11:00 +33°C° 0 mm 3 m/s 760 mmHg 47%
    12:00 +35°C° 0 mm 3 m/s 760 mmHg 40%
    13:00 +36°C° 0 mm 3 m/s 759 mmHg 37%
    14:00 +36°C° 0 mm 3 m/s 758 mmHg 35%
    15:00 +37°C° 0 mm 3 m/s 757 mmHg 32%
    16:00 +34°C° 0 mm 2 m/s 758 mmHg 41%
    17:00 +31°C° 0 mm 2 m/s 758 mmHg 49%
    18:00 +29°C° 0 mm 2 m/s 758 mmHg 58%
    19:00 +27°C° 0 mm 2 m/s 759 mmHg 66%
    20:00 +26°C° 0 mm 2 m/s 759 mmHg 74%
    21:00 +25°C° 0 mm 2 m/s 760 mmHg 82%
    22:00 +24°C° 0 mm 2 m/s 760 mmHg 82%
    23:00 +24°C° 0 mm 2 m/s 760 mmHg 82%

    29 Iunie, Joi

    Timp Temperatura Precipitaţii Vânt Presiune Umiditate
    00:00 +24°C° 0 mm 3 m/s 760 mmHg 82%
    01:00 +24°C° 0 mm 3 m/s 760 mmHg 75%
    02:00 +24°C° 0 mm 3 m/s 759 mmHg 68%
    03:00 +22°C° 0 mm 3 m/s 759 mmHg 61%
    04:00 +22°C° 0 mm 4 m/s 759 mmHg 65%
    05:00 +22°C° 0 mm 4 m/s 759 mmHg 68%
    06:00 +22°C° 0 mm 4 m/s 760 mmHg 72%
    07:00 +25°C° 0 mm 4 m/s 760 mmHg 65%
    08:00 +27°C° 0 mm 4 m/s 760 mmHg 58%
    09:00 +28°C° 0 mm 5 m/s 761 mmHg 52%
    10:00 +30°C° 0 mm 5 m/s 760 mmHg 44%
    11:00 +33°C° 0 mm 5 m/s 760 mmHg 37%
    12:00 +35°C° 0 mm 5 m/s 759 mmHg 30%
    13:00 +35°C° 0 mm 5 m/s 759 mmHg 30%
    14:00 +36°C° 0 mm 4 m/s 758 mmHg 29%
    15:00 +36°C° 0 mm 4 m/s 758 mmHg 29%
    16:00 +35°C° 0 mm 3 m/s 758 mmHg 34%
    17:00 +33°C° 0 mm 3 m/s 758 mmHg 39%
    18:00 +30°C° 0 mm 2 m/s 758 mmHg 44%
    19:00 +29°C° 0 mm 2 m/s 759 mmHg 45%
    20:00 +28°C° 0 mm 3 m/s 760 mmHg 46%
    21:00 +27°C° 0 mm 3 m/s 760 mmHg 48%
    22:00 +27°C° 0 mm 4 m/s 760 mmHg 46%
    23:00 +27°C° 0 mm 5 m/s 760 mmHg 44%
    Arată mai mult